contact:dominique.lefevre@mio.osupytheas.fr, maurice.libes@osupytheas.fr, didier.mallarino@osupytheas.fr
Project:EMSO http://www.emso-fr.org/EMSO-France
Depth: 2436.0 m
Title:EMSO Ligure Ouest : Data MII capteur AQUADOPP
Date,Latitude,Longitude,X_East,Y_North,Z_Up,Amplitude_X,Amplitude_Y,Amplitude_Z,Batterie,SoundSpeed,Heading,Pitch,Roll,Pressure,TIS,Speed,Direction
, degrees North, degrees East, m.s-1, m.s-1,m.s-1, 1, 1, 1, Volt, m.s-1, degree, degree, degree, dbar, degree_C, m.s-1, degree
2019-06-05T00:04:04,42.805,6.029,-0.055,0.023,-0.063,96.0,104.0,97.0,13.4,1505.3,325.8,-0.8,1.8,2470.119,13.33,0.059,292.7
2019-06-05T00:07:05,42.805,6.029,-0.048,0.034,-0.084,97.0,105.0,95.0,13.4,1505.4,325.9,-0.8,1.9,2470.174,13.34,0.058,305.3
2019-06-05T00:10:06,42.805,6.029,-0.008,0.021,-0.043,97.0,103.0,95.0,13.4,1505.4,322.9,-0.8,1.9,2470.098,13.34,0.022,339.1
2019-06-05T00:13:07,42.805,6.029,-0.003,0.009,-0.034,97.0,107.0,95.0,13.3,1505.4,324.4,-0.7,1.8,2470.128,13.34,0.009,341.6
2019-06-05T00:16:08,42.805,6.029,-0.004,0.0,-0.063,97.0,104.0,96.0,13.4,1505.4,325.2,-0.8,1.9,2470.137,13.34,0.004,270.0
2019-06-05T00:19:09,42.805,6.029,0.068,0.031,0.018,98.0,102.0,95.0,13.3,1505.4,324.4,-0.7,1.8,2470.099,13.34,0.074,65.5
2019-06-05T00:22:10,42.805,6.029,0.012,0.027,0.0,95.0,104.0,95.0,13.4,1505.4,323.4,-0.7,1.8,2470.145,13.35,0.029,24.0
2019-06-05T00:25:11,42.805,6.029,0.087,0.028,0.067,97.0,104.0,99.0,13.3,1505.4,324.7,-0.8,1.9,2470.166,13.35,0.091,72.2
2019-06-05T00:28:12,42.805,6.029,0.0,0.05,-0.013,97.0,105.0,94.0,13.4,1505.4,322.8,-0.7,1.8,2470.082,13.35,0.05,0.0
2019-06-05T00:31:13,42.805,6.029,0.007,0.007,-0.039,97.0,104.0,97.0,13.3,1505.4,324.7,-0.8,1.9,2470.099,13.35,0.009,45.0
2019-06-05T00:34:14,42.805,6.029,-0.08,0.0,-0.11,96.0,106.0,94.0,13.4,1505.4,325.9,-0.7,1.8,2470.132,13.35,0.079,270.0
2019-06-05T00:37:15,42.805,6.029,-0.076,0.015,-0.092,95.0,106.0,97.0,13.4,1505.4,324.6,-0.8,1.8,2470.113,13.35,0.077,281.2
2019-06-05T00:40:16,42.805,6.029,-0.101,-0.003,-0.142,96.0,104.0,96.0,13.4,1505.4,322.9,-0.8,1.8,2470.1,13.35,0.101,268.3
2019-06-05T00:43:17,42.805,6.029,-0.068,0.011,-0.106,97.0,106.0,95.0,13.4,1505.4,324.5,-0.8,1.9,2470.076,13.35,0.068,279.2
2019-06-05T00:46:18,42.805,6.029,-0.057,-0.014,-0.102,101.0,108.0,97.0,13.4,1505.4,323.3,-0.8,1.8,2470.091,13.35,0.058,256.2
2019-06-05T00:49:19,42.805,6.029,-0.059,0.002,-0.096,98.0,103.0,97.0,13.4,1505.4,328.3,-0.7,1.8,2470.057,13.35,0.059,271.9
2019-06-05T00:52:20,42.805,6.029,-0.065,0.004,-0.11,93.0,108.0,96.0,13.4,1505.4,326.9,-0.8,1.8,2470.067,13.35,0.065,273.5
2019-06-05T00:55:21,42.805,6.029,0.066,0.023,0.022,98.0,104.0,95.0,13.3,1505.4,324.9,-0.8,1.9,2470.104,13.35,0.069,70.8
2019-06-05T00:58:22,42.805,6.029,0.0,0.001,-0.051,97.0,105.0,97.0,13.4,1505.4,324.0,-0.7,1.9,2470.108,13.35,0.001,0.0
2019-06-05T01:01:23,42.805,6.029,-0.007,0.02,-0.055,97.0,104.0,94.0,13.4,1505.4,324.4,-0.7,1.9,2470.092,13.35,0.021,340.7
2019-06-05T01:04:24,42.805,6.029,-0.044,0.018,-0.072,100.0,105.0,94.0,13.4,1505.4,323.0,-0.7,1.9,2470.065,13.35,0.047,292.2
2019-06-05T01:07:25,42.805,6.029,-0.052,0.02,-0.089,96.0,106.0,96.0,13.3,1505.4,326.9,-0.7,1.8,2470.123,13.35,0.055,291.0
2019-06-05T01:10:26,42.805,6.029,-0.047,0.024,-0.068,97.0,110.0,95.0,13.4,1505.4,327.4,-0.7,1.8,2470.066,13.35,0.052,297.0
2019-06-05T01:13:27,42.805,6.029,-0.028,0.018,-0.081,98.0,107.0,95.0,13.4,1505.4,327.7,-0.7,1.9,2470.07,13.35,0.033,302.7
2019-06-05T01:16:28,42.805,6.029,0.058,0.028,0.021,97.0,103.0,95.0,13.3,1505.4,323.3,-0.8,1.9,2470.097,13.35,0.064,64.2
2019-06-05T01:19:29,42.805,6.029,-0.059,0.013,-0.101,95.0,106.0,95.0,13.4,1505.4,324.5,-0.7,1.8,2470.106,13.35,0.06,282.4
2019-06-05T01:22:30,42.805,6.029,0.048,0.024,0.007,97.0,103.0,94.0,13.4,1505.4,328.4,-0.7,1.9,2470.04,13.35,0.053,63.4
2019-06-05T01:25:31,42.805,6.029,0.03,0.037,0.03,96.0,103.0,94.0,13.4,1505.4,325.9,-0.8,1.8,2470.048,13.35,0.047,39.0
2019-06-05T01:28:32,42.805,6.029,-0.012,0.028,-0.028,97.0,103.0,96.0,13.3,1505.4,326.7,-0.7,1.8,2470.113,13.35,0.03,336.8
2019-06-05T01:31:33,42.805,6.029,-0.078,0.038,-0.08,98.0,105.0,95.0,13.4,1505.4,327.0,-0.7,1.9,2470.043,13.35,0.086,296.0
2019-06-05T01:34:34,42.805,6.029,-0.011,0.005,-0.058,98.0,105.0,95.0,13.4,1505.4,327.1,-0.7,1.9,2470.023,13.35,0.012,294.4
2019-06-05T01:37:35,42.805,6.029,-0.07,0.012,-0.131,96.0,105.0,95.0,13.4,1505.4,326.4,-0.7,1.8,2470.056,13.35,0.071,279.7
2019-06-05T01:40:36,42.805,6.029,-0.043,0.024,-0.066,98.0,105.0,95.0,13.4,1505.4,322.7,-0.8,1.8,2470.072,13.35,0.049,299.2
2019-06-05T01:43:37,42.805,6.029,-0.034,0.006,-0.102,98.0,106.0,94.0,13.4,1505.4,324.8,-0.8,1.8,2470.034,13.35,0.034,280.0
2019-06-05T01:46:38,42.805,6.029,-0.022,0.007,-0.076,98.0,108.0,95.0,13.4,1505.4,324.9,-0.7,1.9,2470.071,13.35,0.023,287.6
2019-06-05T01:49:39,42.805,6.029,-0.048,0.007,-0.105,96.0,106.0,95.0,13.4,1505.4,326.2,-0.8,1.9,2470.066,13.35,0.048,278.3
2019-06-05T01:52:40,42.805,6.029,-0.106,0.01,-0.128,102.0,105.0,98.0,13.4,1505.4,328.1,-0.7,1.8,2470.084,13.35,0.106,275.4
2019-06-05T01:55:41,42.805,6.029,-0.004,0.02,-0.065,99.0,104.0,96.0,13.4,1505.4,323.4,-0.7,1.9,2470.027,13.35,0.02,348.7
2019-06-05T01:58:42,42.805,6.029,0.042,0.03,-0.007,96.0,104.0,95.0,13.3,1505.4,326.3,-0.8,1.9,2470.012,13.35,0.051,54.5
2019-06-05T02:01:43,42.805,6.029,-0.071,0.005,-0.128,98.0,105.0,94.0,13.4,1505.4,326.7,-0.8,1.8,2470.061,13.35,0.071,274.0
2019-06-05T02:04:44,42.805,6.029,-0.028,0.007,-0.094,97.0,105.0,96.0,13.4,1505.4,325.6,-0.7,1.9,2470.023,13.35,0.028,284.0
2019-06-05T02:07:45,42.805,6.029,0.04,0.041,0.032,95.0,104.0,96.0,13.4,1505.4,325.6,-0.7,1.9,2470.088,13.35,0.057,44.3
2019-06-05T02:10:46,42.805,6.029,0.036,0.011,0.005,99.0,104.0,94.0,13.4,1505.4,323.3,-0.7,1.9,2470.057,13.35,0.037,73.0
2019-06-05T02:13:47,42.805,6.029,-0.043,0.026,-0.08,97.0,105.0,95.0,13.4,1505.4,324.5,-0.7,1.9,2470.082,13.35,0.05,301.2
2019-06-05T02:16:48,42.805,6.029,-0.005,0.02,-0.028,98.0,107.0,95.0,13.4,1505.4,328.1,-0.7,1.8,2470.031,13.35,0.02,346.0
2019-06-05T02:19:49,42.805,6.029,-0.06,0.042,-0.104,99.0,105.0,96.0,13.3,1505.4,326.5,-0.7,1.9,2470.007,13.35,0.073,305.0
2019-06-05T02:22:50,42.805,6.029,-0.015,0.015,-0.057,96.0,105.0,94.0,13.4,1505.4,324.6,-0.7,1.8,2470.02,13.35,0.021,315.0
2019-06-05T02:25:51,42.805,6.029,-0.037,0.003,-0.071,96.0,107.0,95.0,13.4,1505.4,323.9,-0.7,1.8,2470.043,13.35,0.037,274.6
2019-06-05T02:28:52,42.805,6.029,-0.077,-0.001,-0.117,99.0,105.0,94.0,13.4,1505.4,324.9,-0.8,1.8,2470.024,13.35,0.077,269.3
2019-06-05T02:31:53,42.805,6.029,-0.046,0.018,-0.078,97.0,106.0,94.0,13.3,1505.4,328.2,-0.7,1.8,2470.039,13.35,0.049,291.4
2019-06-05T02:34:54,42.805,6.029,-0.05,0.005,-0.099,99.0,106.0,95.0,13.3,1505.4,327.0,-0.8,1.8,2469.996,13.35,0.05,275.7
2019-06-05T02:37:55,42.805,6.029,0.019,0.0,-0.036,98.0,103.0,99.0,13.4,1505.4,324.6,-0.7,1.8,2470.006,13.35,0.019,90.0
2019-06-05T02:40:56,42.805,6.029,0.028,0.017,-0.034,98.0,100.0,95.0,13.4,1505.4,322.9,-0.7,1.8,2470.02,13.35,0.032,58.7
2019-06-05T02:43:57,42.805,6.029,-0.027,0.023,-0.02,98.0,105.0,95.0,13.4,1505.4,325.3,-0.7,1.8,2470.033,13.35,0.035,310.4
2019-06-05T02:46:58,42.805,6.029,-0.011,0.01,-0.091,96.0,103.0,95.0,13.4,1505.4,324.1,-0.8,1.8,2470.047,13.35,0.014,312.3
2019-06-05T02:49:59,42.805,6.029,-0.043,0.027,-0.058,97.0,102.0,94.0,13.4,1505.4,325.0,-0.7,1.9,2470.048,13.35,0.05,302.1
2019-06-05T02:53:00,42.805,6.029,-0.031,0.004,-0.074,96.0,103.0,95.0,13.4,1505.4,324.2,-0.7,1.9,2470.026,13.35,0.031,277.3
2019-06-05T02:56:01,42.805,6.029,-0.01,0.001,-0.088,96.0,102.0,94.0,13.3,1505.4,323.0,-0.8,1.9,2470.045,13.35,0.01,275.7
2019-06-05T02:59:02,42.805,6.029,-0.019,0.024,-0.034,97.0,104.0,95.0,13.4,1505.4,324.7,-0.7,1.8,2470.042,13.35,0.03,321.6
2019-06-05T03:02:03,42.805,6.029,-0.08,0.011,-0.111,96.0,103.0,95.0,13.4,1505.4,323.9,-0.7,1.8,2470.04,13.34,0.08,277.8
2019-06-05T03:05:04,42.805,6.029,-0.061,0.007,-0.102,97.0,102.0,95.0,13.4,1505.4,324.1,-0.7,1.8,2470.09,13.34,0.061,276.5
2019-06-05T03:08:05,42.805,6.029,-0.033,0.007,-0.06,96.0,105.0,94.0,13.4,1505.4,322.6,-0.7,1.9,2470.047,13.34,0.033,282.0
2019-06-05T03:11:06,42.805,6.029,-0.004,0.018,-0.068,98.0,105.0,95.0,13.4,1505.4,326.1,-0.8,1.8,2470.065,13.34,0.018,347.5
2019-06-05T03:14:07,42.805,6.029,-0.013,0.002,-0.086,98.0,105.0,93.0,13.3,1505.4,323.6,-0.7,1.8,2470.034,13.34,0.013,278.7
2019-06-05T03:17:08,42.805,6.029,-0.013,-0.005,-0.076,97.0,101.0,96.0,13.4,1505.4,324.9,-0.8,1.9,2470.029,13.34,0.013,249.0
2019-06-05T03:20:09,42.805,6.029,-0.002,0.012,-0.054,95.0,101.0,96.0,13.3,1505.4,324.6,-0.8,1.9,2470.008,13.34,0.012,350.5
2019-06-05T03:23:10,42.805,6.029,-0.014,0.006,-0.063,98.0,101.0,95.0,13.4,1505.4,324.3,-0.7,1.8,2470.042,13.34,0.015,293.2
2019-06-05T03:26:11,42.805,6.029,-0.015,0.04,-0.07,97.0,104.0,95.0,13.3,1505.4,323.5,-0.7,1.8,2470.072,13.34,0.042,339.4
2019-06-05T03:29:12,42.805,6.029,0.007,0.005,-0.068,96.0,101.0,95.0,13.4,1505.4,327.0,-0.8,1.8,2470.054,13.34,0.008,54.5
2019-06-05T03:32:13,42.805,6.029,-0.049,-0.004,-0.111,99.0,102.0,95.0,13.4,1505.4,324.1,-0.8,1.8,2470.05,13.34,0.049,265.3
2019-06-05T03:35:14,42.805,6.029,-0.023,0.012,-0.06,97.0,103.0,96.0,13.4,1505.4,326.1,-0.8,1.8,2470.065,13.34,0.025,297.6
2019-06-05T03:38:15,42.805,6.029,-0.017,0.016,-0.086,99.0,101.0,96.0,13.4,1505.4,323.3,-0.7,1.8,2470.008,13.34,0.023,313.3
2019-06-05T03:41:16,42.805,6.029,-0.108,0.005,-0.146,97.0,104.0,94.0,13.4,1505.4,324.0,-0.7,1.8,2470.036,13.34,0.108,272.6
2019-06-05T03:44:17,42.805,6.029,-0.054,0.01,-0.071,97.0,102.0,95.0,13.3,1505.4,322.8,-0.8,1.9,2469.988,13.34,0.054,280.5
2019-06-05T03:47:18,42.805,6.029,0.02,0.01,-0.03,98.0,101.0,95.0,13.4,1505.4,326.8,-0.7,1.8,2470.048,13.34,0.022,63.4
2019-06-05T03:50:19,42.805,6.029,-0.014,0.012,-0.032,98.0,102.0,95.0,13.4,1505.4,324.4,-0.7,1.8,2470.021,13.34,0.018,310.6
2019-06-05T03:53:20,42.805,6.029,-0.067,0.017,-0.076,100.0,105.0,94.0,13.4,1505.4,325.1,-0.7,1.8,2470.017,13.34,0.069,284.2
2019-06-05T03:56:21,42.805,6.029,-0.059,0.005,-0.099,98.0,104.0,95.0,13.3,1505.4,326.0,-0.7,1.8,2470.031,13.34,0.059,274.8
2019-06-05T03:59:22,42.805,6.029,-0.062,0.021,-0.079,96.0,104.0,95.0,13.3,1505.4,327.1,-0.8,1.9,2470.012,13.34,0.065,288.7
2019-06-05T04:02:23,42.805,6.029,-0.059,-0.003,-0.11,97.0,105.0,95.0,13.3,1505.4,325.6,-0.8,1.9,2470.021,13.35,0.059,267.1
2019-06-05T04:05:24,42.805,6.029,-0.051,0.008,-0.092,98.0,104.0,95.0,13.3,1505.4,324.3,-0.7,1.9,2470.046,13.35,0.051,278.9
2019-06-05T04:08:25,42.805,6.029,-0.051,0.006,-0.092,97.0,105.0,95.0,13.4,1505.4,326.3,-0.7,1.9,2469.993,13.35,0.051,276.7
2019-06-05T04:11:26,42.805,6.029,-0.059,0.018,-0.13,95.0,105.0,95.0,13.4,1505.4,326.3,-0.8,1.9,2470.038,13.35,0.061,287.0
2019-06-05T04:14:27,42.805,6.029,0.011,0.023,0.009,96.0,104.0,96.0,13.4,1505.4,324.6,-0.8,1.8,2470.031,13.34,0.025,25.6
2019-06-05T04:17:28,42.805,6.029,-0.006,0.014,-0.065,97.0,104.0,95.0,13.3,1505.4,324.9,-0.8,1.9,2470.071,13.34,0.015,336.8
2019-06-05T04:20:29,42.805,6.029,0.042,0.023,-0.011,97.0,103.0,94.0,13.4,1505.4,323.8,-0.8,1.8,2469.997,13.34,0.047,61.3
2019-06-05T04:23:30,42.805,6.029,0.014,0.0,-0.009,99.0,105.0,94.0,13.4,1505.4,324.2,-0.8,1.8,2470.031,13.34,0.014,90.0
2019-06-05T04:26:31,42.805,6.029,-0.007,0.023,-0.017,99.0,105.0,95.0,13.3,1505.4,323.0,-0.7,1.9,2470.041,13.34,0.024,343.1
2019-06-05T04:29:32,42.805,6.029,0.041,0.031,0.017,98.0,102.0,95.0,13.4,1505.4,324.7,-0.7,1.9,2470.03,13.35,0.051,52.9
2019-06-05T04:32:33,42.805,6.029,-0.061,0.022,-0.089,96.0,106.0,95.0,13.4,1505.4,324.6,-0.8,1.9,2470.025,13.35,0.064,289.8
2019-06-05T04:35:34,42.805,6.029,-0.061,0.018,-0.082,95.0,108.0,94.0,13.3,1505.4,323.8,-0.8,1.8,2470.066,13.35,0.063,286.4
2019-06-05T04:38:35,42.805,6.029,-0.075,0.006,-0.061,97.0,106.0,95.0,13.4,1505.4,322.9,-0.7,1.8,2470.065,13.35,0.075,274.6
2019-06-05T04:41:36,42.805,6.029,-0.044,0.009,-0.075,99.0,104.0,97.0,13.3,1505.4,324.1,-0.8,1.8,2470.006,13.35,0.044,281.6
2019-06-05T04:44:37,42.805,6.029,-0.028,0.028,-0.043,96.0,103.0,96.0,13.4,1505.4,323.4,-0.7,1.9,2470.045,13.35,0.039,315.0
2019-06-05T04:47:38,42.805,6.029,-0.037,0.03,-0.094,97.0,105.0,94.0,13.3,1505.4,326.6,-0.7,1.9,2470.095,13.35,0.047,309.0
2019-06-05T04:50:39,42.805,6.029,-0.005,0.007,-0.08,96.0,105.0,95.0,13.3,1505.4,326.0,-0.8,1.8,2470.047,13.35,0.008,324.5
2019-06-05T04:53:40,42.805,6.029,-0.001,0.013,-0.016,96.0,104.0,95.0,13.3,1505.4,327.6,-0.7,1.9,2470.086,13.35,0.013,355.6
2019-06-05T04:56:41,42.805,6.029,-0.004,0.0,-0.046,98.0,102.0,94.0,13.4,1505.4,326.6,-0.8,1.9,2470.041,13.35,0.004,270.0
2019-06-05T04:59:42,42.805,6.029,-0.029,0.019,-0.047,97.0,103.0,95.0,13.3,1505.4,324.3,-0.7,1.9,2470.025,13.35,0.034,303.2
2019-06-05T05:02:43,42.805,6.029,-0.007,0.009,-0.055,97.0,105.0,95.0,13.4,1505.4,322.7,-0.7,1.8,2470.056,13.35,0.011,322.1
2019-06-05T05:05:44,42.805,6.029,-0.032,0.028,-0.07,94.0,105.0,94.0,13.3,1505.4,324.4,-0.8,1.8,2470.05,13.35,0.042,311.2
2019-06-05T05:08:45,42.805,6.029,-0.005,0.01,-0.041,98.0,102.0,98.0,13.4,1505.4,323.7,-0.8,1.9,2470.045,13.35,0.011,333.4
2019-06-05T05:11:46,42.805,6.029,-0.014,0.023,-0.069,95.0,104.0,95.0,13.4,1505.4,325.6,-0.7,1.8,2470.057,13.35,0.026,328.7
2019-06-05T05:14:47,42.805,6.029,-0.031,0.019,-0.037,97.0,105.0,96.0,13.4,1505.4,328.3,-0.7,1.9,2470.096,13.35,0.036,301.5
2019-06-05T05:17:48,42.805,6.029,-0.004,0.034,-0.024,95.0,103.0,97.0,13.4,1505.4,324.9,-0.8,1.9,2470.094,13.35,0.034,353.3
2019-06-05T05:20:49,42.805,6.029,-0.04,0.003,-0.05,96.0,103.0,95.0,13.3,1505.4,324.2,-0.8,1.8,2470.11,13.35,0.04,274.3
2019-06-05T05:23:50,42.805,6.029,-0.004,0.029,-0.02,95.0,103.0,96.0,13.4,1505.4,324.2,-0.7,1.9,2470.08,13.35,0.029,352.2
2019-06-05T05:26:51,42.805,6.029,-0.061,0.049,-0.036,94.0,103.0,95.0,13.4,1505.4,325.8,-0.8,1.8,2470.047,13.35,0.078,308.8
2019-06-05T05:29:52,42.805,6.029,-0.04,0.028,-0.075,98.0,104.0,94.0,13.4,1505.4,327.8,-0.7,1.8,2470.022,13.35,0.048,305.0
2019-06-05T05:32:53,42.805,6.029,0.016,0.033,-0.041,99.0,103.0,95.0,13.4,1505.4,325.1,-0.8,1.8,2470.079,13.35,0.036,25.9
2019-06-05T05:35:54,42.805,6.029,0.006,0.02,-0.052,97.0,103.0,95.0,13.3,1505.4,324.3,-0.7,1.8,2470.091,13.35,0.02,16.7
2019-06-05T05:38:55,42.805,6.029,0.002,0.008,-0.068,98.0,104.0,93.0,13.3,1505.4,324.2,-0.7,1.8,2470.13,13.35,0.008,14.0
2019-06-05T05:41:56,42.805,6.029,-0.02,0.006,-0.047,100.0,104.0,95.0,13.4,1505.4,324.4,-0.8,1.9,2470.094,13.35,0.02,286.7
2019-06-05T05:44:57,42.805,6.029,-0.006,-0.004,-0.055,96.0,104.0,96.0,13.4,1505.4,322.6,-0.8,1.8,2470.124,13.35,0.007,236.3
2019-06-05T05:47:58,42.805,6.029,0.01,0.015,-0.04,96.0,106.0,94.0,13.3,1505.4,324.2,-0.7,1.8,2470.1,13.35,0.018,33.7
2019-06-05T05:50:59,42.805,6.029,0.071,0.031,0.013,97.0,104.0,94.0,13.4,1505.4,323.4,-0.7,1.9,2470.093,13.35,0.077,66.4
2019-06-05T05:54:00,42.805,6.029,0.004,0.028,-0.024,97.0,104.0,95.0,13.4,1505.4,324.6,-0.8,1.9,2470.12,13.35,0.028,8.1
2019-06-05T05:57:01,42.805,6.029,0.073,0.017,0.0,100.0,105.0,95.0,13.3,1505.4,327.9,-0.7,1.8,2470.127,13.35,0.074,76.9
2019-06-05T06:00:02,42.805,6.029,0.063,0.005,-0.024,96.0,105.0,95.0,13.4,1505.4,327.2,-0.7,1.8,2470.115,13.35,0.063,85.5
2019-06-05T06:03:03,42.805,6.029,0.004,0.012,-0.059,95.0,105.0,96.0,13.4,1505.4,325.4,-0.7,1.9,2470.146,13.35,0.012,18.4
2019-06-05T06:06:04,42.805,6.029,0.009,0.017,-0.029,96.0,106.0,96.0,13.4,1505.4,325.1,-0.8,1.8,2470.132,13.35,0.019,27.9
2019-06-05T06:09:05,42.805,6.029,0.02,0.034,-0.016,97.0,105.0,94.0,13.4,1505.4,326.7,-0.8,1.8,2470.151,13.35,0.039,30.5
2019-06-05T06:12:06,42.805,6.029,0.039,0.019,-0.026,95.0,104.0,95.0,13.4,1505.4,326.5,-0.7,1.8,2470.161,13.35,0.043,64.0
2019-06-05T06:15:07,42.805,6.029,0.0,0.018,-0.069,97.0,104.0,95.0,13.4,1505.4,325.3,-0.7,1.8,2470.106,13.35,0.018,0.0
2019-06-05T06:18:08,42.805,6.029,0.066,0.033,0.022,95.0,107.0,95.0,13.4,1505.4,325.7,-0.8,1.8,2470.158,13.35,0.073,63.4
2019-06-05T06:21:09,42.805,6.029,0.054,0.038,0.014,97.0,105.0,95.0,13.4,1505.4,324.7,-0.7,1.8,2470.128,13.35,0.066,54.9
2019-06-05T06:24:10,42.805,6.029,0.077,0.032,0.029,97.0,105.0,94.0,13.4,1505.4,323.9,-0.8,1.9,2470.136,13.35,0.083,67.4
2019-06-05T06:27:11,42.805,6.029,0.032,0.021,-0.006,96.0,105.0,95.0,13.4,1505.4,324.8,-0.7,1.9,2470.125,13.35,0.038,56.7
2019-06-05T06:30:12,42.805,6.029,0.049,0.033,-0.027,95.0,108.0,94.0,13.4,1505.4,325.1,-0.7,1.8,2470.157,13.35,0.059,56.0
2019-06-05T06:33:13,42.805,6.029,0.005,0.017,-0.038,97.0,104.0,95.0,13.4,1505.4,324.4,-0.7,1.8,2470.154,13.35,0.017,16.4
2019-06-05T06:36:14,42.805,6.029,0.015,0.034,0.004,97.0,106.0,97.0,13.3,1505.4,323.0,-0.7,1.9,2470.132,13.35,0.037,23.8
2019-06-05T06:39:15,42.805,6.029,0.066,0.032,0.028,94.0,106.0,95.0,13.3,1505.4,326.9,-0.8,1.9,2470.169,13.35,0.073,64.1
2019-06-05T06:42:16,42.805,6.029,0.045,0.009,-0.036,97.0,105.0,95.0,13.4,1505.4,322.7,-0.7,1.8,2470.14,13.35,0.045,78.7
2019-06-05T06:45:17,42.805,6.029,0.044,0.03,-0.012,98.0,103.0,94.0,13.4,1505.4,324.9,-0.7,1.8,2470.167,13.35,0.053,55.7
2019-06-05T06:48:18,42.805,6.029,0.054,0.033,0.015,97.0,105.0,95.0,13.3,1505.4,323.1,-0.7,1.8,2470.135,13.35,0.063,58.6
2019-06-05T06:51:19,42.805,6.029,0.041,0.013,0.009,96.0,104.0,97.0,13.3,1505.4,326.2,-0.8,1.8,2470.196,13.35,0.043,72.4
2019-06-05T06:54:20,42.805,6.029,0.084,0.031,0.025,95.0,104.0,96.0,13.4,1505.4,324.3,-0.7,1.8,2470.176,13.35,0.089,69.7
2019-06-05T06:57:21,42.805,6.029,0.071,0.031,0.015,99.0,107.0,94.0,13.4,1505.4,324.9,-0.7,1.8,2470.16,13.35,0.077,66.4
2019-06-05T07:00:22,42.805,6.029,0.048,0.031,0.007,98.0,104.0,95.0,13.4,1505.4,324.1,-0.8,1.9,2470.187,13.35,0.057,57.1
2019-06-05T07:03:23,42.805,6.029,0.033,0.03,0.023,96.0,105.0,96.0,13.4,1505.4,325.2,-0.7,1.8,2470.176,13.35,0.044,47.7
2019-06-05T07:06:24,42.805,6.029,0.052,0.022,-0.007,98.0,107.0,94.0,13.4,1505.4,323.5,-0.7,1.9,2470.196,13.35,0.056,67.1
2019-06-05T07:09:25,42.805,6.029,0.005,0.015,-0.039,97.0,106.0,95.0,13.3,1505.4,324.0,-0.8,1.8,2470.191,13.35,0.015,18.4
2019-06-05T07:12:26,42.805,6.029,0.051,0.025,-0.009,96.0,105.0,95.0,13.4,1505.4,324.4,-0.8,1.8,2470.17,13.35,0.056,63.9
2019-06-05T07:15:27,42.805,6.029,0.062,0.039,0.026,98.0,108.0,93.0,13.4,1505.4,324.1,-0.8,1.9,2470.171,13.35,0.073,57.8
2019-06-05T07:18:28,42.805,6.029,0.03,0.032,-0.017,97.0,104.0,95.0,13.3,1505.4,323.3,-0.7,1.9,2470.169,13.35,0.043,43.1
2019-06-05T07:21:29,42.805,6.029,0.056,0.04,0.024,97.0,102.0,95.0,13.4,1505.4,324.8,-0.8,1.9,2470.187,13.35,0.068,54.5
2019-06-05T07:24:30,42.805,6.029,0.037,0.042,0.0,98.0,103.0,94.0,13.4,1505.4,325.0,-0.8,1.8,2470.176,13.35,0.055,41.4
2019-06-05T07:27:31,42.805,6.029,0.057,0.037,0.027,97.0,104.0,95.0,13.4,1505.4,325.2,-0.7,1.9,2470.188,13.35,0.067,57.0
2019-06-05T07:30:32,42.805,6.029,0.088,0.033,0.032,95.0,104.0,96.0,13.4,1505.4,326.7,-0.8,1.9,2470.165,13.35,0.093,69.4
2019-06-05T07:33:33,42.805,6.029,0.078,0.016,0.018,97.0,104.0,95.0,13.4,1505.4,325.3,-0.7,1.8,2470.22,13.35,0.079,78.4
2019-06-05T07:36:34,42.805,6.029,0.044,-0.002,-0.023,98.0,105.0,95.0,13.3,1505.4,326.6,-0.7,1.9,2470.168,13.35,0.044,92.6
2019-06-05T07:39:35,42.805,6.029,0.022,0.013,-0.022,97.0,106.0,96.0,13.3,1505.4,327.1,-0.7,1.8,2470.228,13.35,0.025,59.4
2019-06-05T07:42:36,42.805,6.029,0.039,0.029,0.018,96.0,105.0,95.0,13.4,1505.4,325.5,-0.7,1.8,2470.202,13.35,0.048,53.4
2019-06-05T07:45:37,42.805,6.029,0.015,0.023,-0.042,97.0,106.0,95.0,13.4,1505.4,323.2,-0.8,1.9,2470.183,13.35,0.027,33.1
2019-06-05T07:48:38,42.805,6.029,0.039,0.038,0.01,97.0,105.0,94.0,13.4,1505.4,324.7,-0.8,1.8,2470.213,13.35,0.054,45.7
2019-06-05T07:51:39,42.805,6.029,-0.005,0.028,-0.047,96.0,107.0,93.0,13.4,1505.4,323.4,-0.8,1.8,2470.238,13.35,0.028,349.9
2019-06-05T07:54:40,42.805,6.029,0.029,0.023,-0.001,96.0,106.0,96.0,13.4,1505.4,324.2,-0.7,1.8,2470.207,13.35,0.037,51.6
2019-06-05T07:57:41,42.805,6.029,-0.001,0.051,-0.02,95.0,104.0,96.0,13.3,1505.4,325.4,-0.7,1.9,2470.182,13.35,0.051,358.9
2019-06-05T08:00:42,42.805,6.029,0.022,0.02,-0.061,98.0,106.0,96.0,13.3,1505.4,324.4,-0.7,1.8,2470.165,13.35,0.029,47.7
2019-06-05T08:03:43,42.805,6.029,0.008,0.04,-0.034,97.0,105.0,94.0,13.4,1505.4,325.8,-0.8,1.8,2470.168,13.35,0.04,11.3
2019-06-05T08:06:44,42.805,6.029,-0.028,0.023,-0.049,97.0,105.0,97.0,13.3,1505.4,324.8,-0.7,1.9,2470.209,13.35,0.036,309.4
2019-06-05T08:09:45,42.805,6.029,-0.016,0.022,-0.083,96.0,104.0,95.0,13.4,1505.4,323.6,-0.7,1.9,2470.196,13.34,0.027,324.0
2019-06-05T08:12:46,42.805,6.029,0.009,0.002,-0.052,100.0,107.0,95.0,13.3,1505.4,325.9,-0.8,1.8,2470.169,13.35,0.009,77.5
2019-06-05T08:15:47,42.805,6.029,0.04,0.021,0.002,95.0,105.0,97.0,13.4,1505.4,323.5,-0.7,1.8,2470.2,13.35,0.045,62.3
2019-06-05T08:18:48,42.805,6.029,0.035,0.034,-0.019,98.0,104.0,94.0,13.3,1505.4,327.5,-0.7,1.8,2470.182,13.35,0.048,45.8
2019-06-05T08:21:49,42.805,6.029,-0.003,0.017,-0.053,96.0,105.0,95.0,13.4,1505.4,326.1,-0.7,1.9,2470.174,13.35,0.017,350.0
2019-06-05T08:24:50,42.805,6.029,0.044,0.012,0.033,98.0,104.0,98.0,13.4,1505.4,327.6,-0.7,1.9,2470.128,13.35,0.045,74.7
2019-06-05T08:27:51,42.805,6.029,-0.019,0.025,-0.081,96.0,105.0,96.0,13.3,1505.4,324.2,-0.7,1.8,2470.203,13.35,0.031,322.8
2019-06-05T08:30:52,42.805,6.029,-0.041,0.025,-0.066,97.0,106.0,95.0,13.3,1505.4,327.6,-0.8,1.8,2470.171,13.35,0.048,301.4
2019-06-05T08:33:53,42.805,6.029,-0.01,0.026,-0.058,96.0,106.0,95.0,13.4,1505.4,326.8,-0.7,1.8,2470.19,13.35,0.027,339.0
2019-06-05T08:36:54,42.805,6.029,-0.038,0.016,-0.089,98.0,106.0,95.0,13.4,1505.4,326.9,-0.7,1.9,2470.183,13.35,0.041,292.8
2019-06-05T08:39:55,42.805,6.029,-0.074,-0.01,-0.153,98.0,105.0,96.0,13.4,1505.4,325.7,-0.8,1.8,2470.179,13.35,0.074,262.3
2019-06-05T08:42:56,42.805,6.029,-0.021,0.018,-0.062,97.0,104.0,95.0,13.4,1505.4,326.9,-0.7,1.9,2470.173,13.34,0.027,310.6
2019-06-05T08:45:57,42.805,6.029,-0.082,0.036,-0.133,95.0,105.0,95.0,13.4,1505.4,326.0,-0.7,1.9,2470.195,13.34,0.089,293.7
2019-06-05T08:48:58,42.805,6.029,0.009,0.028,-0.042,96.0,105.0,94.0,13.3,1505.4,325.9,-0.7,1.8,2470.204,13.34,0.029,17.8
2019-06-05T08:51:59,42.805,6.029,0.002,0.008,-0.063,97.0,105.0,94.0,13.4,1505.4,325.6,-0.7,1.9,2470.191,13.34,0.008,14.0
2019-06-05T08:55:00,42.805,6.029,-0.004,0.011,-0.077,97.0,105.0,95.0,13.4,1505.4,324.2,-0.7,1.8,2470.18,13.34,0.011,340.0
2019-06-05T08:58:01,42.805,6.029,0.0,0.033,-0.051,96.0,106.0,93.0,13.4,1505.4,325.9,-0.8,1.8,2470.202,13.34,0.033,0.0
2019-06-05T09:01:02,42.805,6.029,0.016,0.031,-0.04,98.0,105.0,95.0,13.4,1505.4,326.5,-0.7,1.8,2470.139,13.34,0.034,27.3
2019-06-05T09:04:03,42.805,6.029,0.027,0.014,-0.025,99.0,105.0,93.0,13.3,1505.4,327.7,-0.7,1.8,2470.105,13.34,0.03,62.6
2019-06-05T09:07:04,42.805,6.029,-0.021,0.049,-0.034,97.0,106.0,93.0,13.4,1505.4,326.9,-0.7,1.8,2470.2,13.34,0.053,336.8
2019-06-05T09:10:05,42.805,6.029,-0.001,0.033,-0.045,96.0,106.0,95.0,13.3,1505.4,327.4,-0.8,1.9,2470.141,13.34,0.033,358.3
2019-06-05T09:13:06,42.805,6.029,0.022,0.001,-0.068,97.0,107.0,94.0,13.4,1505.4,325.5,-0.7,1.8,2470.176,13.34,0.022,87.4
2019-06-05T09:16:07,42.805,6.029,0.038,0.037,-0.008,97.0,105.0,93.0,13.4,1505.4,327.5,-0.7,1.9,2470.16,13.34,0.053,45.8
2019-06-05T09:19:08,42.805,6.029,-0.017,0.026,-0.054,97.0,105.0,95.0,13.3,1505.4,322.9,-0.7,1.8,2470.162,13.34,0.031,326.8
2019-06-05T09:22:09,42.805,6.029,-0.025,0.022,-0.093,96.0,105.0,95.0,13.4,1505.4,327.6,-0.7,1.9,2470.156,13.34,0.033,311.3
2019-06-05T09:25:10,42.805,6.029,-0.016,0.011,-0.09,96.0,104.0,95.0,13.4,1505.4,325.9,-0.7,1.9,2470.175,13.34,0.019,304.5
2019-06-05T09:28:11,42.805,6.029,-0.022,0.012,-0.054,96.0,104.0,94.0,13.4,1505.4,325.9,-0.7,1.8,2470.156,13.34,0.025,298.6
2019-06-05T09:31:12,42.805,6.029,-0.033,0.003,-0.048,98.0,105.0,95.0,13.4,1505.4,323.8,-0.7,1.8,2470.123,13.34,0.033,275.2
2019-06-05T09:34:13,42.805,6.029,-0.03,0.0,-0.114,96.0,104.0,95.0,13.4,1505.4,324.0,-0.7,1.8,2470.146,13.34,0.03,270.0
2019-06-05T09:37:14,42.805,6.029,-0.033,0.042,-0.103,98.0,104.0,93.0,13.4,1505.4,327.7,-0.8,1.8,2470.166,13.34,0.053,321.8
2019-06-05T09:40:15,42.805,6.029,-0.04,0.025,-0.071,96.0,102.0,96.0,13.4,1505.4,326.6,-0.7,1.9,2470.094,13.34,0.047,302.0
2019-06-05T09:43:16,42.805,6.029,-0.028,0.03,-0.046,96.0,103.0,96.0,13.4,1505.4,328.1,-0.8,1.9,2470.145,13.34,0.041,317.0